Location: Saint Louis
(38.6272°N, 90.1978°W)
Time: 01:50:00
(UTC-05:00)

ISS - Pass Details

Date: 20 August 2013
Orbit: 401 x 404 km, 51.6° (Epoch: 24 July)

Event Time Altitude Azimuth Distance (km) Brightness Sun altitude
Rises 21:37:41 0° 315° (NW) 2,316 2.0 -20.1°
Reaches altitude 10° 21:39:57 10° 328° (NNW) 1,456 0.5 -20.5°
Enters shadow 21:42:41 28° 25° (NNE) 791 -1.8 -20.9°
